P/2024 R1 ( PanSTARRS )

Japanese version
Home page
Updated on November 27, 2024

---------------------------------------------------------------------

* Profile

Discovery Date September 1, 2024
Magnitude 21.3 mag
Discoverer Pan-STARRS 1 telescope (Haleakala)

* Orbital Elements

Epoch 2024 Oct. 17.0 TT = JDT 2460600.5
T 2024 June 15.67043 TT                                 Rudenko
q   1.7497600            (2000.0)            P               Q
n   0.15376201     Peri.  230.58209     +0.69510570     +0.68453997
a   3.4506694      Node    84.98258     -0.57305907     +0.71205815
e   0.4929216      Incl.   12.73635     -0.43408682     +0.15613525
P   6.41
From 45 observations 2024 June 3-Oct. 9, mean residual 0".2.

* Magnitudes Graph

        m1 = 18.0 + 5 log d + 10.0 log r

---------------------------------------------------------------------

The orbital elements are published on M.P.E.C. 2024-T253.
The magnitudes graphs are made with Comet for Windows.

---------------------------------------------------------------------

Copyright(C) Seiichi Yoshida (comet@aerith.net). All rights reserved.